Regional Weather Roundup
Issued by NWS

Home | Current Version | Previous Version | Text Only | Print | Product List | Glossary Off
Versions: 1 2 3 4 5 6 7 8 9 10 11 12 13 14 15 16 17 18 19 20 21 22 23 24 25 26 27 28 29 30 31 32 33 34 35 36 37 38 39 40 41 42 43 44 45 46 47 48 49 50

000
ASUS43 KBIS 022010
RWRND

NORTH DAKOTA REGIONAL WEATHER ROUNDUP
NATIONAL WEATHER SERVICE BISMARCK ND
300 PM CDT SUN AUG 02 2015

NOTE: "FAIR" INDICATES FEW OR NO CLOUDS BELOW 12,000 FEET WITH NO
SIGNIFICANT WEATHER AND/OR OBSTRUCTIONS TO VISIBILITY.


NDZ001>003-009>011-017-022100-
NORTHWEST NORTH DAKOTA

CITY           SKY/WX    TMP DP  RH WIND       PRES   REMARKS
WILLISTON      SUNNY     80  48  32 N13G18    30.00S
MINOT          MOSUNNY   77  48  35 NW12G23   29.94S
MINOT AFB      MOSUNNY   80  49  33 N8        29.93S
$$

NDZ018>021-031>035-040>046-022100-
SOUTHWEST NORTH DAKOTA

CITY           SKY/WX    TMP DP  RH WIND       PRES   REMARKS
BISMARCK       MOSUNNY   80  54  40 N10G18    29.94S
DICKINSON      SUNNY     80  50  34 N13       29.99S
GARRISON         N/A     75  54  47 NW9G21    29.96R
HETTINGER ARPT SUNNY     83  46  27 N15G22    30.00S
$$

NDZ004>008-012>016-024-026-027-054-022100-
NORTHEAST NORTH DAKOTA

CITY           SKY/WX    TMP DP  RH WIND       PRES   REMARKS
GRAND FORKS    MOSUNNY   76  48  37 NW17      29.82S
GRND FRKS AFB  SUNNY     75  48  38 NW17      29.84S
DEVILS LAKE    SUNNY     75  45  33 NW17G25   29.88F
$$

NDZ022-023-025-028>030-036>039-047>053-022100-
SOUTHEAST NORTH DAKOTA

CITY           SKY/WX    TMP DP  RH WIND       PRES   REMARKS
FARGO          MOSUNNY   80  54  40 NW16G23   29.83S
JAMESTOWN      MOSUNNY   76  57  51 N17       29.89R
$$



USA.gov is the U.S. government's official web portal to all federal, state and local government web resources and services.